Regional Weather Roundup
Issued by NWS

Home | Current Version | Previous Version | Graphics & Text | Print | Product List | Glossary On
Versions: 1 2 3 4 5 6 7 8 9 10 11 12 13 14 15 16 17 18 19 20 21 22 23 24 25 26 27 28 29 30 31 32 33 34 35 36 37 38 39 40 41 42 43 44 45 46 47 48 49 50
000
ASUS43 KFSD 280210
RWRSD

WEATHER ROUNDUP FOR SOUTH DAKOTA
NATIONAL WEATHER SERVICE SIOUX FALLS SD
900 PM CDT WED JUL 27 2016

NOTE: "FAIR" INDICATES FEW OR NO CLOUDS BELOW 12,000 FEET WITH NO
SIGNIFICANT WEATHER AND/OR OBSTRUCTIONS TO VISIBILITY.


SDZ001>005-009-010-012>017-280300-
NORTHWEST AND NORTH CENTRAL SOUTH DAKOTA

CITY           SKY/WX    TMP DP  RH WIND       PRES   REMARKS
BUFFALO          N/A     72  56  57 E12       30.06F
FAITH            N/A     70  59  68 NE7       30.11R
MOBRIDGE       CLOUDY    73  60  63 E7        30.07R
$$

SDZ012>016-024>037-041>051-057-063-072>074-280300-
SOUTHWEST AND SOUTH CENTRAL SOUTH DAKOTA

CITY           SKY/WX    TMP DP  RH WIND       PRES   REMARKS
RAPID CTY ARPT CLEAR     72  58  61 E7        30.13R
PIERRE         CLOUDY    71  62  73 E7        30.03F
CUSTER         TSTM      60  57  89 VRB3      30.29R VSB 1/2
ELLSWORTH AFB  PTCLDY    73  60  64 E7        30.13R
PHILIP         PTCLDY    68  61  78 SE3       30.09R
PINE RIDGE     CLOUDY    73  62  68 E12       30.12R
WINNER         RAIN      65  61  87 N9        30.12R FOG
$$

SDZ004>011-016>023-039-040-280300-
NORTHEAST SOUTH DAKOTA

CITY           SKY/WX    TMP DP  RH WIND       PRES   REMARKS
ABERDEEN       CLOUDY    73  61  65 N7        30.06S
WATERTOWN      CLOUDY    70  57  63 N3        30.07R
BROOKINGS      CLOUDY    69  62  78 N6        30.05R
SISSETON         N/A     67  60  78 N7        30.03S
$$

SDZ017-020-022-023-036>040-048>070-280300-
SOUTHEAST SOUTH DAKOTA

CITY           SKY/WX    TMP DP  RH WIND       PRES   REMARKS
SIOUX FALLS    CLOUDY    72  64  76 N8        30.03R
HURON          CLOUDY    74  63  68 N8        30.04R
CHAMBERLAIN    LGT RAIN  78  65  65 CALM      30.06F
MITCHELL       MOCLDY    76  65  68 NE6       30.03R
YANKTON        MOCLDY    77  63  61 N9        29.99R
$$

ABBREVIATIONS USED IN REMARKS
   TC - TEMPERATURE IN CELSIUS
  WCI - WIND CHILL INDEX
   HX - HEAT INDEX
  VSB - VISIBILITY





USA.gov is the U.S. government's official web portal to all federal, state and local government web resources and services.